THOR ABLESTAR DEB, 467

Orbit data source: Space-Track

THOR ABLESTAR DEB, 467 is space debris in LEO originally from a launch on Thu, 29 Jun 1961 UTC launched from the Air Force Eastern Test Range (AFETR). Debris objects in space refer to the collection of defunct objects orbiting the Earth. Examples of debris include non-operational satellites, rocket bodies, and fragments generated from explosions, collisions, or faulty payload assembly.

Loading next visibility...
Identifier
467, 1961-015FD
Orbit
LEO
Country
Flag of USUS
Related business
Manufacturer
Unknown
Mission
Spacecraft
Bus & Motor
Unknown
Mass
Unknown
Launch date (UTC)
1961-06-29 (65 years ago)
Launch vehicle
Unknown
Launch site
Air Force Eastern Test Range (AFETR)
Object type
Payload
Rocket body
Debris
Shape & HBR
Unknown shape, 0.1 m
Radar Cross Section
Medium (>0.1 m² and <1 m²)

Expand to show TLE details & history
Last TLE update: 21 hours ago

TLE from 21 hours ago
0 THOR ABLESTAR DEB
1 00467U 61015FD  26150.29885042  .00002402  00000-0  28311-2 0  9997
2 00467  66.5569 129.6636 0247678 328.7267  29.9253 13.57392208278511
Epoch: 2026-05-30T07:10Z
TLE epoch observation values (Epoch: 2026-05-30T07:10:20.676Z)
Latitude
-0.00009°
Longitude
134.26053°
Altitude
889.02 km
Speed
7.487 km/s
True Right ascension
08h 38m 39s
True Declination
0° 00' 00"
Sunlit
Object was in daylight at epoch
Visualization orbit readout
Latitude
Unknown
Longitude
Unknown
Altitude
Unknown
Speed
Unknown
Apparent Right ascension
Unknown
Apparent Declination
Unknown
Sunlit
N/A
Visualization observer readout
Local Sidereal Time
13:39:03
Azimuth
Unknown
Elevation
Unknown
Doppler factor
Unknown
Orbital elements
Apogee altitude
1,227.451 km
Perigee altitude
859.809 km
Semi-major axis
7,421.767 km
Eccentricity
0.02477
Inclination
66.5569°
RAAN
129.6636°
Arg. of periapsis
328.7267°
True anomaly
31.38002°
Mean anomaly
29.9253°
Eccentric anomaly
30.64871°
Mean motion
3.39455 °/min
Orbital period
106.05 mins
BSTAR
0.0028311
Loading maneuver chart data...
Computing Atmospheric mass density...

Documentation

Showing up to 5 results
|